This demonstration page uses our WeatherBlox Daily Observations layout. Learn more.

Hourly Observations for June 21, 2020

Temp ( °F °C ) Dew Point ( °F °C ) Humidity (%) Winds ( mph kmh ) Pressure ( in mb ) Visibility ( mi km ) Precip ( " mm )
12:54 am 00:54 Mostly Cloudy 75 23.9 64 17.8 69 69 S 17 28 29.83 1010 10 16.0934 0.001 0.001
1:05 am 01:05 Mostly Cloudy with Nearby Thunderstorms 76 24.4 64 17.8 67 67 S 6 9 29.83 1010 10 16.0934 0 0
1:16 am 01:16 Mostly Cloudy with Thunderstorms 74 23.3 65 18.3 74 74 NNE 10 17 29.85 1011 10 16.0934 0 0
1:34 am 01:34 Mostly Cloudy with Light Rain 74 23.3 65 18.3 74 74 SSE 3 6 29.83 1010 10 16.0934 0.001 0.001
1:54 am 01:54 Partly Cloudy with Light Rain 73 22.8 66 18.9 79 79 S 7 11 29.84 1011 10 16.0934 0.01 0.254
2:54 am 02:54 Mostly Cloudy with Nearby Thunderstorms 74 23.3 66 18.9 76 76 WSW 5 7 29.84 1011 10 16.0934 0.001 0.001
3:18 am 03:18 Cloudy with Light Thunderstorms 71 21.7 64 17.8 79 79 NW 17 28 29.87 1012 10 16.0934 0.001 0.001
3:41 am 03:41 Mostly Cloudy with Light Rain 69 20.6 65 18.3 87 87 S 5 7 29.83 1010 10 16.0934 0.05 1.27
3:54 am 03:54 Mostly Clear 68 20 64 17.8 87 87 S 9 15 29.83 1010 10 16.0934 0.05 1.27
4:54 am 04:54 Clear 68 20 64 17.8 87 87 Calm 29.82 1010 10 16.0934 0 0
5:54 am 05:54 Clear 67 19.4 63 17.2 87 87 Calm 29.83 1010 10 16.0934 0 0
6:54 am 06:54 Sunny 68 20 64 17.8 87 87 S 6 9 29.81 1010 10 16.0934 0 0
7:54 am 07:54 Sunny 72 22.2 65 18.3 79 79 S 3 6 29.82 1010 10 16.0934 0 0
8:54 am 08:54 Sunny 77 25 67 19.4 71 71 SSW 7 11 29.82 1010 10 16.0934 0 0
9:54 am 09:54 Sunny 74 23.3 65 18.3 74 74 S 5 7 29.83 1010 10 16.0934 0 0
10:54 am 10:54 Sunny 74 23.3 66 18.9 76 76 Calm 29.83 1010 10 16.0934 0 0
11:54 am 11:54 Mostly Cloudy with Light Rain 75 23.9 67 19.4 76 76 S 12 19 29.81 1010 10 16.0934 0.001 0.001
12:54 pm 12:54 Mostly Sunny 77 25 68 20 74 74 S 9 15 29.83 1010 10 16.0934 0.001 0.001
1:54 pm 13:54 Sunny 83 28.3 62 16.7 49 49 SSE 16 26 29.79 1009 10 16.0934 0 0
2:54 pm 14:54 Sunny 80 26.7 64 17.8 58 58 S 13 20 29.8 1009 10 16.0934 0 0
3:54 pm 15:54 Sunny 84 28.9 64 17.8 51 51 S 12 19 29.77 1008 10 16.0934 0 0
4:54 pm 16:54 Sunny 85 29.4 63 17.2 48 48 S 13 20 29.73 1007 10 16.0934 0 0
5:54 pm 17:54 Sunny 83 28.3 58 14.4 43 43 SSW 17 28 29.74 1007 10 16.0934 0 0
6:54 pm 18:54 Sunny 80 26.7 61 16.1 52 52 SSW 9 15 29.71 1006 10 16.0934 0 0
7:54 pm 19:54 Sunny 78 25.6 61 16.1 56 56 S 9 15 29.74 1007 10 16.0934 0 0
8:54 pm 20:54 Sunny 74 23.3 62 16.7 67 67 S 8 13 29.74 1007 10 16.0934 0 0
9:54 pm 21:54 Clear 75 23.9 62 16.7 64 64 Calm 29.74 1007 10 16.0934 0 0
10:54 pm 22:54 Clear 74 23.3 63 17.2 69 69 WNW 3 6 29.77 1008 10 16.0934 0 0
11:54 pm 23:54 Clear 69 20.6 63 17.2 81 81 SSW 6 9 29.8 1009 10 16.0934 0 0

Powered by AerisWeather